Location: Armstrong Village
(14.3346°N, 120.9854°E)
Time: 01:39:51
(UTC+00:00)

Spot 4 Rocket - Pass Details

Date: 13 January 2026
Orbit: 768 x 774 km, 98.8° (Epoch: 16 February)

Event Time Altitude Azimuth Distance (km) Brightness Sun altitude
Rises 10:19:18 0° 150° (SSE) 3,237 7.1 -8.5°
Reaches altitude 10° 10:21:45 10° 142° (SE) 2,312 6.3 -9.1°
Maximum altitude 10:26:24 37° 75° (ENE) 1,182 4.5 -10.1°
Drops below altitude 10° 10:31:05 10° 9° (N) 2,315 6.2 -11.2°
Sets 10:33:32 0° 1° (N) 3,242 7.0 -11.7°
